Regional Weather Roundup
Issued by NWS

Home | Current Version | Previous Version | Text Only | Print | Product List | Glossary Off
Versions: 1 2 3 4 5 6 7 8 9 10 11 12 13 14 15 16 17 18 19 20 21 22 23 24 25 26 27 28 29 30 31 32 33 34 35 36 37 38 39 40 41 42 43 44 45 46 47 48 49 50

000
ASUS43 KFSD 271502
RWRSD

WEATHER ROUNDUP FOR SOUTH DAKOTA
NATIONAL WEATHER SERVICE SIOUX FALLS SD
1000 AM CDT THU JUL 27 2017

NOTE: "FAIR" INDICATES FEW OR NO CLOUDS BELOW 12,000 FEET WITH NO
SIGNIFICANT WEATHER AND/OR OBSTRUCTIONS TO VISIBILITY.


SDZ001>005-009-010-012>017-271600-
NORTHWEST AND NORTH CENTRAL SOUTH DAKOTA

CITY           SKY/WX    TMP DP  RH WIND       PRES   REMARKS
BUFFALO          N/A     79  59  50 S13       30.03F
FAITH            N/A     77  58  51 S15       30.12F
MOBRIDGE       SUNNY     75  63  66 SE8       30.12F
$$

SDZ012>016-024>037-041>051-057-063-072>074-271600-
SOUTHWEST AND SOUTH CENTRAL SOUTH DAKOTA

CITY           SKY/WX    TMP DP  RH WIND       PRES   REMARKS
RAPID CTY ARPT CLOUDY    76  62  62 S14       30.15S
PIERRE         SUNNY     72  56  57 SE10      30.12F
CUSTER         HVY RAIN  63  61  93 VRB3      30.27S FOG
ELLSWORTH AFB  CLOUDY    76  63  63 S17       30.13F
PHILIP         CLOUDY    78  57  48 SE12      30.13S
PINE RIDGE     CLOUDY    72  55  55 SE15G24   30.19R
SPEARFISH      FAIR      81  57  44 SE15      30.14S
WINNER         FAIR      79  60  52 VRB6      30.16S
$$

SDZ004>011-016>023-039-040-271600-
NORTHEAST SOUTH DAKOTA

CITY           SKY/WX    TMP DP  RH WIND       PRES   REMARKS
ABERDEEN       SUNNY     72  63  73 NE6       30.16R
WATERTOWN      SUNNY     74  61  63 N5        30.15S
BROOKINGS      SUNNY     72  63  73 NE5       30.15S
SISSETON         N/A     76  63  64 NW5       30.14S
$$

SDZ017-020-022-023-036>040-048>070-271600-
SOUTHEAST SOUTH DAKOTA

CITY           SKY/WX    TMP DP  RH WIND       PRES   REMARKS
SIOUX FALLS    MOSUNNY   76  66  71 NE5       30.12F
HURON          SUNNY     74  64  71 E3        30.14F
CHAMBERLAIN    SUNNY     76  64  67 S6        30.15S
MITCHELL       SUNNY     75  64  68 CALM      30.14S
YANKTON        SUNNY     75  64  68 N7        30.13R
$$

ABBREVIATIONS USED IN REMARKS
   TC - TEMPERATURE IN CELSIUS
  WCI - WIND CHILL INDEX
   HX - HEAT INDEX
  VSB - VISIBILITY




USA.gov is the U.S. government's official web portal to all federal, state and local government web resources and services.